Погода в Хунзахе

Россия / Республика Дагестан     42°32′37″N   46°42′21″E
темп.,
°C
ветер,
м/с
пор.,
м/с
влажн.,
%
обл.,
%
осадки,
мм/ч
давл.,
гПа
погр.,
м
19 января, вт
вт1900:00−5ссв2392100 0.4 1015241
03:00−6ссв1291100 1.0 1016177
06:00−6св129090 0.4 1019174
09:00−6св218694 0.7 1020309
12:00−5всв3281100 0.1 1020454
15:00−7св3387100 0.5 1018304
18:00−8св2291100 0.8 1021234
21:00−9в229299 1.1 1022192
20 января, ср
ср2000:00−9вюв119295 0.1 1022136
03:00−10всв119790 0.1 1022110
06:00−10всв229599 0.1 1022182
09:00−10всв2290100 0.5 1022293
12:00−9всв2283100 0.3 1022472
15:00−8всв2286100 0.8 1021400
18:00−10св2394100 0.6 1024227
21:00−11св1294100 1.2 1025185
21 января, чт
чт2100:00−11св1194100 0.2 1026135
03:00−12зсз1192100 0.3 102621
06:00−14з228033 0.0 102823
09:00−11з226517 0.0 1030116
12:00−7сз34510 0.0 1030785
15:00−7сз35570 0.0 1030653
18:00−11з33680 0.0 103441
21:00−11з33610 0.0 103438
22 января, пт
пт2200:00−11зюз33580 0.0 103533
03:00−11зюз33530 0.0 103429
06:00−11зюз33470 0.0 103423
09:00−7з22480 0.0 103439
12:00−2с01390 0.0 1031206
15:00−2всв11570 0.0 103077
18:00−5юз11570 0.0 103021
21:00−6зюз22470 0.0 103121
23 января, сб
сб2300:00−5зюз22380 0.0 103021
03:00−5зюз22360 0.0 102921
06:00−5зюз23350 0.0 102821
09:00−2зюз22420 0.0 102824
12:00+2в11503 0.0 102577
15:00+1ссв11571 0.0 102429
18:00−2зюз22530 0.0 102421
21:00−3зюз33410 0.0 102524